Regional Weather Roundup
Issued by NWS Albany, NY

Home | Current Version | Previous Version | Text Only | Print | Product List | Glossary On
Versions: 1 2 3 4 5 6 7 8 9 10 11 12 13 14 15 16 17 18 19 20 21 22 23 24 25 26 27
000
ASUS41 KALY 180210
RWRALY

NEW YORK STATE HOURLY WEATHER ROUNDUP
NATIONAL WEATHER SERVICE ALBANY NY
900 PM EST SUN DEC 17 2017

NOTE: "FAIR" INDICATES FEW OR NO CLOUDS BELOW 12,000 FEET WITH NO
SIGNIFICANT WEATHER AND/OR NO OBSTRUCTIONS TO VISIBILITY.

NYZ032-033-038>043-046>054-057>066-NYZ062>081-082-084-180300-
EAST


CITY           SKY/WX    TMP DP  RH WIND       PRES   REMARKS
ALBANY         CLOUDY    21  10  62 N5        30.27F WCI  15
GLENS FALLS    MOCLDY    11   7  84 CALM      30.27F
POUGHKEEPSIE   CLOUDY    27  15  61 CALM      30.26F
NEWBURGH       CLOUDY    27  19  74 CALM      30.25F
MONTGOMERY     CLOUDY    26  17  68 N6        30.23F WCI  19
WHITE PLAINS   CLOUDY    30  19  63 CALM      30.23F
ISLIP          CLOUDY    33  24  69 CALM      30.26F
NEW YORK CITY  CLOUDY    35  25  66 NE7       30.25S WCI  29
CENTRAL PARK   CLOUDY    36  25  64 VRB5      30.27F WCI  32
$$

NYZ005>009-017-018-044>046-055-056-180300-
CENTRAL


CITY           SKY/WX    TMP DP  RH WIND       PRES   REMARKS
FULTON         PTCLDY    17  12  80 CALM      30.20S
SYRACUSE       CLOUDY    19  15  84 E5        30.20S WCI  12
ROME           MOCLDY    19  13  77 E6        30.23F WCI  11
ELMIRA         CLOUDY    28  21  75 CALM      30.14F
BINGHAMTON     CLOUDY    22  19  89 SE5       30.11F WCI  16
MONTICELLO     CLOUDY    25  21  85 E5        30.17F WCI  19
$$

NYZ026>034-041>043-087-180300-
NORTH


CITY           SKY/WX    TMP DP  RH WIND       PRES   REMARKS
WATERTOWN      PTCLDY    10   3  73 NE3       30.23S
FORT DRUM      NOT AVBL
OGDENSBURG     FAIR       6   3  88 CALM      30.25S
MASSENA        PTCLDY    -4  -6  91 CALM      30.28F
SARANAC LAKE   CLOUDY     1  -3  83 CALM      30.11F
PLATTSBURGH    CLOUDY    10   4  76 W3        30.28F
$$

NYZ001>004-010>016-019>021-085-180300-
WEST


CITY           SKY/WX    TMP DP  RH WIND       PRES   REMARKS
NIAGARA FALLS  CLOUDY    25  17  72 E10       30.09F WCI  15
BUFFALO        CLOUDY    24  19  81 E8        30.09F WCI  15
DUNKIRK        CLOUDY    25  21  85 E3        30.09F
JAMESTOWN      CLOUDY    30  28  92 S7        30.05F WCI  23
WELLSVILLE     CLOUDY    34  26  72 S5        30.07F WCI  30
ROCHESTER      CLOUDY    25  18  74 E10       30.15F WCI  15
PENN YAN       CLOUDY    24  18  77 CALM      30.14F
$$

             KEY
       WCI = WIND CHILL INDEX
       VSB = VISIBILITY
       HX  = HEAT INDEX
$$




USA.gov is the U.S. government's official web portal to all federal, state and local government web resources and services.